Other Surface Observations
Issued by NWS Missoula, MT

Home | Current Version | Previous Version | Text Only | Print | Product List | Glossary On
Versions: 1 2 3 4 5 6 7 8 9 10 11 12 13 14 15 16 17 18 19 20 21 22 23 24 25 26 27 28 29 30 31 32 33 34 35 36 37 38 39 40 41 42 43 44 45 46 47 48 49 50
000
SXUS55 KMSO 260153
OSOMSO
MONTANA AWOS SUMMARY
NATIONAL WEATHER SERVICE MISSOULA MT
752 PM MDT TUE NOV 25 2014

Montana AWOS Reports

MALTA       |KM75 260055Z AUTO 36008KT 40SM M03/M08 A3008 RMK AO1 T10271077




USA.gov is the U.S. government's official web portal to all federal, state and local government web resources and services.